Time,TemperatureF,DewpointF,PressureIn,WindDirection,WindDirectionDegrees,WindSpeedMPH,WindSpeedGustMPH,Humidity,HourlyPrecipIn,Conditions,Clouds,dailyrainin,SoftwareType,DateUTC
2013-02-05 00:04:00,14.7,13.0,30.01,NW,306,0.0,0.0,93,0.00,,,0.00,weatherlink.com 1.10,2013-02-05 05:04:00,
2013-02-05 00:19:00,14.6,13.0,30.00,NW,307,0.0,0.0,93,0.00,,,0.00,weatherlink.com 1.10,2013-02-05 05:19:00,
2013-02-05 00:34:00,13.9,12.0,30.01,NW,306,0.0,0.0,93,0.00,,,0.00,weatherlink.com 1.10,2013-02-05 05:34:00,
2013-02-05 00:49:00,13.6,12.0,30.01,NW,306,0.0,0.0,94,0.00,,,0.00,weatherlink.com 1.10,2013-02-05 05:49:00,
2013-02-05 01:04:00,13.4,12.0,30.00,NW,306,0.0,0.0,93,0.00,,,0.00,weatherlink.com 1.10,2013-02-05 06:04:00,
2013-02-05 01:19:00,12.5,11.0,30.00,NW,306,0.0,0.0,92,0.00,,,0.00,weatherlink.com 1.10,2013-02-05 06:19:00,
2013-02-05 01:34:00,11.0,9.0,30.00,NW,306,0.0,0.0,90,0.00,,,0.00,weatherlink.com 1.10,2013-02-05 06:34:00,
2013-02-05 01:49:00,10.5,9.0,30.00,NW,307,0.0,0.0,92,0.00,,,0.00,weatherlink.com 1.10,2013-02-05 06:49:00,
2013-02-05 02:04:00,10.9,9.0,30.00,NW,306,0.0,0.0,93,0.00,,,0.00,weatherlink.com 1.10,2013-02-05 07:04:00,
2013-02-05 02:19:00,11.2,10.0,30.00,NW,306,0.0,0.0,93,0.00,,,0.00,weatherlink.com 1.10,2013-02-05 07:19:00,
2013-02-05 02:35:00,11.8,10.0,30.00,NW,307,0.0,0.0,94,0.00,,,0.00,weatherlink.com 1.10,2013-02-05 07:35:00,
2013-02-05 02:50:00,12.4,11.0,30.00,WNW,302,0.0,0.0,94,0.00,,,0.00,weatherlink.com 1.10,2013-02-05 07:50:00,
2013-02-05 03:05:00,13.2,12.0,30.00,South,184,0.0,0.0,95,0.00,,,0.00,weatherlink.com 1.10,2013-02-05 08:05:00,
2013-02-05 03:20:00,14.0,13.0,30.00,East,84,0.0,0.0,95,0.00,,,0.00,weatherlink.com 1.10,2013-02-05 08:20:00,
2013-02-05 03:35:00,14.3,13.0,29.99,ESE,107,0.0,0.0,94,0.00,,,0.00,weatherlink.com 1.10,2013-02-05 08:35:00,
2013-02-05 03:50:00,14.3,13.0,29.98,ESE,106,0.0,0.0,93,0.00,,,0.00,weatherlink.com 1.10,2013-02-05 08:50:00,
2013-02-05 04:05:00,13.9,12.0,29.98,ESE,108,0.0,0.0,93,0.00,,,0.00,weatherlink.com 1.10,2013-02-05 09:05:00,
2013-02-05 04:20:00,13.4,12.0,29.97,ESE,105,0.0,0.0,93,0.00,,,0.00,weatherlink.com 1.10,2013-02-05 09:20:00,
2013-02-05 04:35:00,12.2,10.0,29.98,ESE,105,0.0,0.0,91,0.00,,,0.00,weatherlink.com 1.10,2013-02-05 09:35:00,
2013-02-05 04:50:00,11.7,10.0,29.98,ESE,105,0.0,0.0,93,0.00,,,0.00,weatherlink.com 1.10,2013-02-05 09:50:00,
2013-02-05 05:05:00,11.3,10.0,29.98,ESE,105,0.0,0.0,92,0.00,,,0.00,weatherlink.com 1.10,2013-02-05 10:05:00,
2013-02-05 05:20:00,10.7,9.0,29.98,ESE,104,0.0,0.0,92,0.00,,,0.00,weatherlink.com 1.10,2013-02-05 10:20:00,
2013-02-05 05:35:00,9.8,8.0,29.98,ESE,106,0.0,0.0,92,0.00,,,0.00,weatherlink.com 1.10,2013-02-05 10:35:00,
2013-02-05 05:50:00,9.8,8.0,29.98,ESE,105,0.0,0.0,93,0.00,,,0.00,weatherlink.com 1.10,2013-02-05 10:50:00,
2013-02-05 06:05:00,9.7,8.0,29.98,ESE,106,0.0,0.0,93,0.00,,,0.00,weatherlink.com 1.10,2013-02-05 11:05:00,
2013-02-05 06:20:00,9.1,8.0,29.99,ESE,105,0.0,0.0,93,0.00,,,0.00,weatherlink.com 1.10,2013-02-05 11:20:00,
2013-02-05 06:35:00,9.7,8.0,29.99,ESE,105,0.0,0.0,94,0.00,,,0.00,weatherlink.com 1.10,2013-02-05 11:35:00,
2013-02-05 06:50:00,9.2,7.0,29.98,SE,125,0.0,0.0,92,0.00,,,0.00,weatherlink.com 1.10,2013-02-05 11:50:00,
2013-02-05 07:05:00,10.1,9.0,29.98,SSW,203,0.0,0.0,94,0.00,,,0.00,weatherlink.com 1.10,2013-02-05 12:05:00,
2013-02-05 07:20:00,10.6,9.0,29.98,SSE,156,0.0,0.0,94,0.00,,,0.00,weatherlink.com 1.10,2013-02-05 12:20:00,
2013-02-05 07:35:00,11.1,10.0,29.99,SE,146,0.0,0.0,95,0.00,,,0.00,weatherlink.com 1.10,2013-02-05 12:35:00,
2013-02-05 07:50:00,11.7,10.0,29.99,South,184,0.0,0.0,94,0.00,,,0.00,weatherlink.com 1.10,2013-02-05 12:50:00,
2013-02-05 08:05:00,12.9,12.0,29.99,SE,134,0.0,0.0,95,0.00,,,0.00,weatherlink.com 1.10,2013-02-05 13:05:00,
2013-02-05 08:20:00,14.1,13.0,29.99,SE,146,0.0,0.0,95,0.00,,,0.00,weatherlink.com 1.10,2013-02-05 13:20:00,
2013-02-05 08:35:00,15.0,14.0,29.99,SSE,149,0.0,0.0,94,0.00,,,0.00,weatherlink.com 1.10,2013-02-05 13:35:00,
2013-02-05 08:50:00,15.9,15.0,29.99,SSW,201,0.0,0.0,94,0.00,,,0.00,weatherlink.com 1.10,2013-02-05 13:50:00,
2013-02-05 09:05:00,17.3,16.0,29.98,West,268,0.0,0.0,94,0.00,,,0.00,weatherlink.com 1.10,2013-02-05 14:05:00,
2013-02-05 09:20:00,18.4,17.0,29.98,SSW,204,0.0,0.0,93,0.00,,,0.00,weatherlink.com 1.10,2013-02-05 14:20:00,
2013-02-05 09:35:00,19.5,18.0,29.97,WSW,243,0.0,0.0,93,0.00,,,0.00,weatherlink.com 1.10,2013-02-05 14:35:00,
2013-02-05 09:50:00,20.9,19.0,29.96,SW,233,0.0,0.0,93,0.00,,,0.00,weatherlink.com 1.10,2013-02-05 14:50:00,
2013-02-05 10:05:00,21.5,20.0,29.95,SW,222,0.0,0.0,92,0.00,,,0.00,weatherlink.com 1.10,2013-02-05 15:05:00,
2013-02-05 10:20:00,21.9,20.0,29.95,SE,124,0.0,0.0,90,0.00,,,0.00,weatherlink.com 1.10,2013-02-05 15:20:00,
2013-02-05 10:35:00,23.6,21.0,29.94,SSW,203,0.0,0.0,88,0.00,,,0.00,weatherlink.com 1.10,2013-02-05 15:35:00,
2013-02-05 10:50:00,25.2,22.0,29.94,SSE,153,0.0,0.0,86,0.00,,,0.00,weatherlink.com 1.10,2013-02-05 15:50:00,
2013-02-05 11:05:00,25.9,22.0,29.94,West,274,0.0,0.0,85,0.00,,,0.00,weatherlink.com 1.10,2013-02-05 16:05:00,
2013-02-05 11:20:00,25.9,22.0,29.95,West,262,0.0,0.0,86,0.00,,,0.00,weatherlink.com 1.10,2013-02-05 16:20:00,
2013-02-05 11:35:00,26.1,23.0,29.94,WSW,243,0.0,0.0,86,0.00,,,0.00,weatherlink.com 1.10,2013-02-05 16:35:00,
2013-02-05 11:51:00,26.7,23.0,29.94,South,180,0.0,0.0,85,0.00,,,0.00,weatherlink.com 1.10,2013-02-05 16:51:00,
2013-02-05 12:06:00,27.1,23.0,29.92,West,278,0.0,0.0,84,0.00,,,0.00,weatherlink.com 1.10,2013-02-05 17:06:00,
2013-02-05 12:21:00,28.2,24.0,29.91,SSE,156,0.0,0.0,83,0.00,,,0.00,weatherlink.com 1.10,2013-02-05 17:21:00,
2013-02-05 12:36:00,28.9,24.0,29.91,West,264,0.0,0.0,81,0.00,,,0.00,weatherlink.com 1.10,2013-02-05 17:36:00,
2013-02-05 12:51:00,30.0,24.0,29.90,WSW,237,0.0,0.0,79,0.00,,,0.00,weatherlink.com 1.10,2013-02-05 17:51:00,
2013-02-05 13:06:00,31.0,25.0,29.89,SW,230,0.0,0.0,77,0.00,,,0.00,weatherlink.com 1.10,2013-02-05 18:06:00,
2013-02-05 13:21:00,31.0,25.0,29.88,SSW,200,0.0,0.0,77,0.00,,,0.00,weatherlink.com 1.10,2013-02-05 18:21:00,
2013-02-05 13:36:00,31.3,25.0,29.89,ESE,105,0.0,0.0,76,0.00,,,0.00,weatherlink.com 1.10,2013-02-05 18:36:00,
2013-02-05 13:51:00,31.1,25.0,29.88,South,183,0.0,0.0,77,0.00,,,0.00,weatherlink.com 1.10,2013-02-05 18:51:00,
2013-02-05 14:06:00,31.2,24.0,29.88,NW,311,0.0,0.0,76,0.00,,,0.00,weatherlink.com 1.10,2013-02-05 19:06:00,
2013-02-05 14:21:00,30.3,24.0,29.87,NNW,347,0.0,0.0,77,0.00,,,0.00,weatherlink.com 1.10,2013-02-05 19:21:00,
2013-02-05 14:36:00,30.3,25.0,29.88,SW,215,0.0,0.0,79,0.00,,,0.00,weatherlink.com 1.10,2013-02-05 19:36:00,
2013-02-05 14:51:00,30.1,25.0,29.88,SW,226,0.0,0.0,80,0.00,,,0.00,weatherlink.com 1.10,2013-02-05 19:51:00,
2013-02-05 15:06:00,29.7,25.0,29.88,East,94,0.0,0.0,83,0.00,,,0.00,weatherlink.com 1.10,2013-02-05 20:06:00,
2013-02-05 15:21:00,29.5,26.0,29.89,West,271,0.0,0.0,86,0.00,,,0.00,weatherlink.com 1.10,2013-02-05 20:21:00,
2013-02-05 15:36:00,29.1,26.0,29.89,WSW,239,0.0,0.0,88,0.00,,,0.00,weatherlink.com 1.10,2013-02-05 20:36:00,
2013-02-05 15:51:00,29.0,26.0,29.89,WSW,245,0.0,0.0,89,0.00,,,0.00,weatherlink.com 1.10,2013-02-05 20:51:00,
2013-02-05 16:06:00,28.8,26.0,29.89,WNW,290,0.0,0.0,90,0.00,,,0.00,weatherlink.com 1.10,2013-02-05 21:06:00,
2013-02-05 16:21:00,29.1,27.0,29.89,WSW,250,0.0,0.0,90,0.00,,,0.00,weatherlink.com 1.10,2013-02-05 21:21:00,
2013-02-05 16:36:00,29.7,27.0,29.89,NW,312,0.0,0.0,90,0.00,,,0.00,weatherlink.com 1.10,2013-02-05 21:36:00,
2013-02-05 16:51:00,29.5,27.0,29.90,West,280,0.0,0.0,90,0.00,,,0.00,weatherlink.com 1.10,2013-02-05 21:51:00,
2013-02-05 17:06:00,29.2,27.0,29.91,WSW,238,0.0,0.0,90,0.00,,,0.00,weatherlink.com 1.10,2013-02-05 22:06:00,
2013-02-05 17:21:00,28.8,27.0,29.90,SSW,208,0.0,0.0,91,0.00,,,0.00,weatherlink.com 1.10,2013-02-05 22:21:00,
2013-02-05 17:36:00,28.6,27.0,29.91,WNW,283,0.0,0.0,92,0.00,,,0.00,weatherlink.com 1.10,2013-02-05 22:36:00,
2013-02-05 17:51:00,28.6,27.0,29.91,WSW,250,0.0,0.0,92,0.00,,,0.00,weatherlink.com 1.10,2013-02-05 22:51:00,
2013-02-05 18:06:00,28.5,27.0,29.91,NNW,328,0.0,0.0,92,0.00,,,0.00,weatherlink.com 1.10,2013-02-05 23:06:00,
2013-02-05 18:21:00,28.4,26.0,29.92,WNW,297,0.0,0.0,92,0.00,,,0.00,weatherlink.com 1.10,2013-02-05 23:21:00,
2013-02-05 18:36:00,28.3,26.0,29.93,West,267,0.0,0.0,92,0.00,,,0.00,weatherlink.com 1.10,2013-02-05 23:36:00,
2013-02-05 18:51:00,28.3,26.0,29.93,SW,229,0.0,0.0,92,0.00,,,0.00,weatherlink.com 1.10,2013-02-05 23:51:00,
2013-02-05 19:06:00,28.3,26.0,29.94,WSW,256,0.0,0.0,92,0.00,,,0.00,weatherlink.com 1.10,2013-02-06 00:06:00,
2013-02-05 19:21:00,28.2,27.0,29.94,WNW,300,0.0,0.0,93,0.00,,,0.00,weatherlink.com 1.10,2013-02-06 00:21:00,
2013-02-05 19:36:00,28.2,27.0,29.95,NW,309,0.0,0.0,94,0.00,,,0.00,weatherlink.com 1.10,2013-02-06 00:36:00,
2013-02-05 19:51:00,28.1,27.0,29.96,SW,221,0.0,0.0,95,0.00,,,0.00,weatherlink.com 1.10,2013-02-06 00:51:00,
2013-02-05 20:06:00,28.1,27.0,29.97,NW,319,0.0,0.0,95,0.00,,,0.00,weatherlink.com 1.10,2013-02-06 01:06:00,
2013-02-05 20:21:00,28.2,27.0,29.97,NW,322,0.0,0.0,95,0.00,,,0.00,weatherlink.com 1.10,2013-02-06 01:21:00,
2013-02-05 20:36:00,28.2,27.0,29.98,NNW,330,0.0,0.0,96,0.00,,,0.00,weatherlink.com 1.10,2013-02-06 01:36:00,
2013-02-05 20:51:00,28.2,27.0,29.99,NW,309,0.0,0.0,95,0.00,,,0.00,weatherlink.com 1.10,2013-02-06 01:51:00,
2013-02-05 21:06:00,28.3,27.0,30.00,NW,312,0.0,0.0,96,0.00,,,0.00,weatherlink.com 1.10,2013-02-06 02:06:00,
2013-02-05 21:21:00,28.2,27.0,30.01,North,5,0.0,0.0,95,0.00,,,0.00,weatherlink.com 1.10,2013-02-06 02:21:00,
2013-02-05 21:36:00,28.1,27.0,30.01,NW,309,0.0,0.0,95,0.00,,,0.00,weatherlink.com 1.10,2013-02-06 02:36:00,
2013-02-05 21:51:00,28.0,27.0,30.02,NNW,333,0.0,0.0,95,0.00,,,0.00,weatherlink.com 1.10,2013-02-06 02:51:00,
2013-02-05 22:06:00,28.0,27.0,30.03,NW,319,0.0,0.0,95,0.00,,,0.00,weatherlink.com 1.10,2013-02-06 03:06:00,
2013-02-05 22:21:00,27.9,27.0,30.04,NW,304,0.0,0.0,95,0.00,,,0.00,weatherlink.com 1.10,2013-02-06 03:21:00,
2013-02-05 22:36:00,27.9,26.0,30.04,North,355,0.0,0.0,94,0.00,,,0.00,weatherlink.com 1.10,2013-02-06 03:36:00,
2013-02-05 22:52:00,27.8,26.0,30.05,North,8,0.0,0.0,93,0.00,,,0.00,weatherlink.com 1.10,2013-02-06 03:52:00,
2013-02-05 23:07:00,27.6,26.0,30.06,NNW,333,0.0,0.0,93,0.00,,,0.00,weatherlink.com 1.10,2013-02-06 04:07:00,
2013-02-05 23:22:00,27.3,25.0,30.06,NW,316,0.0,0.0,92,0.00,,,0.00,weatherlink.com 1.10,2013-02-06 04:22:00,
2013-02-05 23:37:00,27.1,25.0,30.06,NNW,331,0.0,0.0,92,0.00,,,0.00,weatherlink.com 1.10,2013-02-06 04:37:00,
2013-02-05 23:52:00,26.8,25.0,30.07,NNW,345,0.0,0.0,91,0.00,,,0.00,weatherlink.com 1.10,2013-02-06 04:52:00,